Location: Dattensoll
(49.9928°N, 9.8954°E)
Time: 20:00:37
(UTC+00:00)

ISS - Pass Details

Date: 26 January 2026
Orbit: 414 x 429 km, 51.6° (Epoch: 6 February)

Event Time Altitude Azimuth Distance (km) Brightness Sun altitude
Rises 18:33:41 0° 286° (WNW) 2,368 1.3 -23.8°
Reaches altitude 10° 18:36:02 10° 272° (W) 1,504 0.1 -24.2°
Enters shadow 18:38:46 24° 218° (SW) 920 -1.7 -24.6°
